User: anonymous
Location: Fort Wayne
(41.1310°N, 85.1290°W)
Time: 13:13:02
(UTC-04:00)
Language:

OAO 2 Rocket - Orbit

View from above orbital plane
View from above orbital plane
View from above satellite
View from above satellite

Ground track
Ground track

The orbit data is extracted from the following two-line orbital elements,

1 03598U 68110B   14207.42310760  .00000211  00000-0  53549-4 0  6696
2 03598 034.9933 182.5914 0049936 297.7987 210.7002 14.53641917412570
Epoch (UTC): 26 July 2014 10:09:16
Eccentricity: 0.0049936
inclination: 34.9933°
perigee height: 678 km
apogee height: 749 km
right ascension of ascending node: 182.5914°
argument of perigee: 297.7987°
revolutions per day: 14.53641917
mean anomaly at epoch: 210.7002°
orbit number at epoch: 41257

The dashed part of the orbit path shows where the satellite is in the earth's shadow,  

DLR